QPF
0.00 0.00 0.00 0.00 0.00 0.00 0.00 0.00 0.00 0.00 0.00 0.00 0.00 0.00 0.00 0.00 0.00 0.00 0.01 0.00 0.00 0.00 0.00 0.00 0.01 0.00 0.00 0.00 0.00 0.02 0.01 0.00 0.00 0.00 0.00 0.00 0.00 0.00 0.00 0.00 0.00 0.00 0.00 0.00
0.00 0.00 0.00 0.00 0.00 0.00 0.00 0.00 0.00 0.00 0.00 0.00 0.00 0.00 0.00 0.00 0.00 0.00 0.01 0.00 0.00 0.00 0.00 0.00 0.01 0.00 0.00 0.00 0.00 0.00 0.00 0.00 0.00 0.00 0.00 0.00 0.00 0.00 0.00 0.00 0.00 0.00 0.00 0.00
0.00 0.00 0.00 0.00 0.00 0.00 0.00 0.00 0.00 0.00 0.00 0.00 0.00 0.00 0.00 0.00 0.00 0.00 0.00 0.00 0.00 0.00 0.00 0.00 0.00 0.00 0.00 0.00 0.00 0.00 0.00 0.00 0.00 0.00 0.00 0.00 0.00 0.00 0.00 0.00 0.00 0.00 0.00 0.00
0.00 0.00 0.00 0.00 0.00 0.00 0.00 0.00 0.00 0.00 0.00 0.00 0.00 0.00 0.00 0.00 0.00 0.00 0.00 0.00 0.00 0.00 0.00 0.00 0.00 0.00 0.00 0.00 0.00 0.00 0.00 0.00 0.00 0.00 0.00 0.00 0.00 0.00 0.00 0.00 0.00 0.00 0.00 0.00
0.00 0.00 0.00 0.00 0.00 0.00 0.00 0.00 0.00 0.00 0.00 0.00 0.00 0.00 0.00 0.00 0.00 0.00 0.00 0.00 0.00 0.00 0.00 0.00 0.00 0.00 0.00 0.00 0.00 0.00 0.00 0.00 0.00 0.00 0.00 0.00 0.00 0.00 0.00 0.00 0.00 0.00 0.00 0.00
0.00 0.00 0.00 0.00 0.00 0.00 0.00 0.00 0.00 0.00 0.00 0.00 0.00 0.00 0.00 0.00 0.00 0.00 0.00 0.00 0.00 0.00 0.00 0.00 0.00 0.00 0.00 0.00 0.00 0.00 0.00 0.00 0.00 0.00 0.00 0.00 0.00 0.00 0.00 0.00 0.00 0.00 0.00 0.00
0.00 0.00 0.00 0.00 0.00 0.00 0.00 0.00 0.00 0.00 0.00 0.00 0.00 0.00 0.00 0.00 0.00 0.00 0.00 0.00 0.00 0.00 0.00 0.00 0.00 0.00 0.00 0.00 0.00 0.00 0.00 0.00 0.00 0.00 0.00 0.00 0.00 0.00 0.00 0.00 0.00 0.00 0.00 0.00
0.00 0.00 0.00 0.00 0.00 0.00 0.00 0.00 0.00 0.00 0.00 0.00 0.00 0.00 0.00 0.00 0.00 0.00 0.00 0.00 0.00 0.00 0.00 0.00 0.00 0.00 0.00 0.00 0.00 0.00 0.00 0.00 0.00 0.00 0.00 0.00 0.00 0.00 0.00 0.00 0.00 0.00 0.00 0.00
0.00 0.00 0.00 0.00 0.00 0.00 0.00 0.00 0.00 0.00 0.00 0.00 0.00 0.00 0.00 0.00 0.00 0.00 0.00 0.00 0.00 0.00 0.00 0.00 0.00 0.00 0.00 0.00 0.00 0.00 0.00 0.00 0.00 0.00 0.00 0.00 0.00 0.00 0.00 0.00 0.00 0.00 0.00 0.00
0.00 0.00 0.00 0.00 0.00 0.00 0.00 0.00 0.00 0.00 0.00 0.00 0.00 0.00 0.00 0.00 0.00 0.00 0.00 0.00 0.00 0.00 0.00 0.00 0.00 0.00 0.00 0.00 0.00 0.00 0.00 0.00 0.00 0.00 0.00 0.00 0.00 0.00 0.00 0.00 0.00 0.00 0.00 0.00
0.00 0.00 0.00 0.00 0.00 0.00 0.00 0.00 0.00 0.00 0.00 0.00 0.00 0.00 0.00 0.00 0.00 0.00 0.00 0.00 0.00 0.00 0.00 0.00 0.00 0.00 0.00 0.00 0.00 0.00 0.00 0.00 0.00 0.00 0.00 0.00 0.00 0.00 0.00 0.00 0.00 0.00 0.00 0.00
0.00 0.00 0.00 0.00 0.00 0.00 0.00 0.00 0.00 0.00 0.00 0.00 0.00 0.00 0.00 0.00 0.00 0.00 0.00 0.00 0.00 0.00 0.00 0.00 0.00 0.00 0.00 0.00 0.00 0.00 0.00 0.00 0.00 0.00 0.00 0.00 0.00 0.00 0.00 0.00 0.00 0.00 0.00 0.00
0.00 0.00 0.00 0.00 0.00 0.00 0.00 0.00 0.00 0.00 0.00 0.00 0.00 0.00 0.00 0.00 0.00 0.00 0.00 0.00 0.00 0.00 0.00 0.00 0.00 0.00 0.00 0.00 0.00 0.00 0.00 0.00 0.00 0.00 0.00 0.00 0.00 0.00 0.00 0.00 0.00 0.00 0.00 0.00
0.00 0.00 0.00 0.00 0.00 0.00 0.00 0.00 0.00 0.00 0.00 0.00 0.00 0.00 0.00 0.00 0.00 0.00 0.00 0.00 0.00 0.00 0.00 0.00 0.00 0.00 0.00 0.00 0.00 0.00 0.00 0.00 0.00 0.00 0.00 0.00 0.00 0.00 0.00 0.00 0.00 0.00 0.00 0.00
0.00 0.00 0.00 0.00 0.00 0.00 0.00 0.00 0.00 0.00 0.00 0.00 0.00 0.00 0.00 0.00 0.00 0.00 0.00 0.00 0.00 0.00 0.00 0.00 0.00 0.00 0.00 0.00 0.00 0.00 0.00 0.00 0.00 0.00 0.00 0.00 0.00 0.00 0.00 0.00 0.00 0.00 0.00 0.00
0.00 0.00 0.00 0.00 0.00 0.00 0.00 0.00 0.00 0.00 0.00 0.00 0.00 0.00 0.00 0.00 0.00 0.00 0.00 0.00 0.00 0.00 0.00 0.00 0.00 0.00 0.00 0.00 0.00 0.00 0.00 0.00 0.00 0.00 0.00 0.00 0.00 0.00 0.00 0.00 0.00 0.00 0.00 0.00
0.00 0.00 0.00 0.00 0.00 0.00 0.00 0.00 0.00 0.00 0.00 0.00 0.00 0.00 0.00 0.00 0.00 0.00 0.00 0.00 0.00 0.00 0.00 0.00 0.00 0.00 0.00 0.00 0.00 0.00 0.00 0.00 0.00 0.00 0.00 0.00 0.00 0.00 0.00 0.00 0.00 0.00 0.00 0.00
0.00 0.00 0.00 0.00 0.00 0.00 0.00 0.00 0.00 0.00 0.00 0.00 0.00 0.00 0.00 0.00 0.00 0.00 0.00 0.00 0.00 0.00 0.00 0.00 0.00 0.00 0.00 0.00 0.00 0.00 0.00 0.00 0.00 0.00 0.00 0.00 0.00 0.00 0.00 0.00 0.00 0.00 0.00 0.00
0.00 0.00 0.00 0.00 0.00 0.00 0.00 0.00 0.00 0.00 0.00 0.00 0.00 0.00 0.00 0.00 0.00 0.00 0.00 0.00 0.00 0.00 0.00 0.00 0.00 0.00 0.00 0.00 0.00 0.00 0.00 0.00 0.00 0.00 0.00 0.00 0.00 0.00 0.00 0.00 0.00 0.00 0.00 0.00
0.00 0.00 0.00 0.00 0.00 0.00 0.00 0.00 0.00 0.00 0.00 0.00 0.00 0.00 0.00 0.00 0.00 0.00 0.00 0.00 0.00 0.00 0.00 0.00 0.00 0.00 0.00 0.00 0.00 0.00 0.00 0.00 0.00 0.00 0.00 0.00 0.00 0.00 0.00 0.00 0.00 0.00 0.00 0.00
0.03 0.01 0.00 0.00 0.00 0.00 0.00 0.00 0.00 0.00 0.00 0.00 0.00 0.00 0.00 0.00 0.00 0.00 0.00 0.00 0.00 0.00 0.00 0.00 0.00 0.00 0.00 0.00 0.00 0.00 0.00 0.00 0.00 0.00 0.00 0.00 0.00 0.00 0.00 0.00 0.00 0.00 0.00 0.00
0.04 0.08 0.01 0.00 0.00 0.00 0.00 0.00 0.00 0.00 0.00 0.00 0.00 0.00 0.00 0.00 0.00 0.00 0.00 0.00 0.00 0.00 0.00 0.00 0.00 0.00 0.00 0.00 0.00 0.00 0.00 0.00 0.00 0.00 0.00 0.00 0.00 0.00 0.00 0.00 0.00 0.00 0.00 0.00
0.01 0.03 0.02 0.00 0.00 0.00 0.00 0.00 0.00 0.00 0.00 0.00 0.00 0.00 0.00 0.00 0.00 0.00 0.00 0.00 0.00 0.00 0.00 0.00 0.00 0.00 0.00 0.00 0.00 0.00 0.00 0.00 0.00 0.00 0.00 0.00 0.00 0.00 0.00 0.00 0.00 0.00 0.00 0.00
0.05 0.04 0.02 0.02 0.01 0.00 0.00 0.00 0.00 0.00 0.00 0.00 0.00 0.00 0.00 0.00 0.00 0.00 0.00 0.00 0.00 0.00 0.00 0.00 0.00 0.00 0.00 0.00 0.00 0.00 0.00 0.00 0.00 0.00 0.00 0.00 0.00 0.00 0.00 0.00 0.00 0.00 0.00 0.00
0.02 0.02 0.06 0.06 0.02 0.00 0.00 0.00 0.00 0.00 0.00 0.00 0.00 0.00 0.00 0.00 0.00 0.00 0.00 0.00 0.00 0.00 0.00 0.00 0.00 0.00 0.00 0.00 0.00 0.00 0.00 0.00 0.00 0.00 0.00 0.00 0.00 0.00 0.00 0.00 0.00 0.00 0.00 0.00
0.01 0.03 0.02 0.05 0.03 0.00 0.00 0.00 0.00 0.00 0.00 0.00 0.00 0.00 0.00 0.00 0.00 0.00 0.00 0.00 0.00 0.00 0.00 0.00 0.00 0.00 0.00 0.00 0.00 0.00 0.00 0.00 0.00 0.00 0.00 0.00 0.00 0.00 0.00 0.00 0.00 0.00 0.00 0.00
MSLP
1010.47 1010.46 1010.16 1010.25 1010.61 1010.90 1011.48 1012.14 1012.81 1013.77 1014.06 1014.43 1014.93 1015.48 1016.44 1017.34 1018.09 1018.60 1018.98 1019.60 1020.12 1020.93 1021.67 1022.31 1021.78 1022.57 1022.69 1023.24 1023.80 1023.96 1023.61 1024.41 1024.82 1025.04 1024.95 1025.07 1025.15 1025.62 1025.63 1025.94 1026.04 1025.94 1025.81 1025.80
1010.79 1010.02 1010.05 1010.57 1010.91 1011.03 1011.35 1011.96 1012.93 1014.12 1014.36 1014.52 1015.41 1015.79 1016.63 1017.20 1017.55 1018.13 1018.66 1019.18 1019.66 1020.69 1021.32 1021.96 1022.43 1022.35 1022.70 1023.13 1023.57 1023.85 1024.03 1024.80 1024.94 1024.80 1024.94 1025.12 1025.44 1026.09 1026.48 1026.53 1026.56 1026.56 1026.42 1026.44
1009.80 1009.92 1010.14 1010.46 1010.83 1011.03 1011.26 1011.35 1012.54 1013.12 1014.39 1015.08 1015.26 1015.94 1016.43 1016.91 1017.39 1017.96 1018.41 1018.68 1019.20 1019.61 1020.46 1021.44 1021.97 1022.18 1022.53 1022.86 1023.31 1023.90 1024.20 1024.64 1024.93 1024.73 1025.17 1025.64 1025.91 1026.53 1026.71 1026.92 1027.02 1026.99 1027.01 1027.11
1009.85 1009.90 1009.95 1009.95 1010.13 1010.37 1010.78 1011.04 1011.66 1012.65 1013.56 1014.09 1014.70 1014.67 1015.43 1015.72 1016.42 1017.22 1017.63 1017.98 1018.47 1019.29 1020.20 1021.02 1021.48 1022.05 1022.33 1022.75 1023.07 1023.68 1024.14 1024.62 1024.87 1025.03 1025.09 1025.26 1025.66 1026.31 1027.30 1027.29 1027.65 1027.54 1027.53 1027.67
1008.93 1009.28 1009.59 1009.70 1009.21 1009.92 1010.05 1010.74 1011.45 1012.15 1012.83 1013.71 1014.59 1014.50 1013.97 1014.82 1015.60 1015.57 1015.94 1016.71 1017.67 1018.70 1019.49 1020.23 1021.01 1021.52 1022.15 1022.75 1023.14 1023.70 1024.25 1024.62 1025.10 1025.37 1025.03 1025.11 1025.98 1026.55 1027.33 1027.69 1027.94 1028.08 1028.08 1028.12
1008.83 1008.94 1008.90 1008.64 1009.00 1009.25 1009.96 1010.88 1012.03 1012.79 1013.27 1013.37 1013.12 1013.35 1012.99 1013.41 1013.06 1013.46 1014.35 1015.58 1016.83 1017.93 1018.94 1019.93 1020.83 1021.53 1022.10 1022.79 1023.18 1023.81 1024.04 1024.48 1025.10 1025.54 1025.44 1025.52 1025.98 1026.61 1027.33 1027.88 1028.15 1028.41 1028.52 1028.53
1008.63 1008.59 1008.23 1008.17 1008.60 1009.37 1009.23 1009.93 1011.63 1012.64 1013.00 1012.62 1013.06 1012.97 1011.42 1011.48 1011.86 1011.73 1012.29 1013.73 1015.55 1017.18 1018.43 1019.27 1020.12 1021.00 1021.74 1022.46 1022.88 1023.51 1023.89 1024.25 1024.95 1025.52 1025.79 1026.13 1026.32 1026.69 1027.35 1027.82 1028.20 1028.63 1028.71 1028.78
1007.69 1008.13 1007.43 1007.20 1007.09 1007.57 1008.55 1008.54 1009.12 1010.29 1011.63 1012.41 1013.04 1011.52 1010.35 1010.25 1010.63 1011.11 1011.96 1013.26 1015.16 1016.30 1017.45 1018.43 1019.54 1020.54 1021.46 1022.27 1022.86 1023.36 1023.89 1024.31 1024.69 1025.51 1025.98 1026.40 1026.84 1027.13 1027.46 1027.93 1028.25 1028.51 1028.81 1029.13
1007.14 1006.92 1006.53 1006.49 1006.50 1006.86 1008.19 1008.30 1008.85 1010.27 1011.97 1012.02 1011.67 1011.08 1010.40 1009.98 1010.06 1010.73 1011.64 1012.72 1014.02 1015.17 1016.32 1017.45 1018.87 1020.01 1021.01 1021.87 1022.58 1023.19 1023.75 1024.25 1024.75 1025.46 1026.20 1026.68 1027.11 1027.29 1027.59 1027.88 1028.34 1028.66 1029.07 1029.20
1006.51 1006.60 1005.95 1006.25 1006.40 1006.63 1006.39 1007.62 1008.78 1009.47 1010.62 1011.10 1011.10 1010.64 1009.56 1009.20 1009.41 1010.39 1011.23 1011.99 1013.27 1014.59 1015.95 1017.08 1018.24 1019.52 1020.59 1021.48 1022.39 1023.25 1023.75 1024.14 1024.72 1025.42 1026.07 1026.60 1027.19 1027.39 1027.81 1028.10 1028.31 1028.70 1029.12 1029.44
1006.23 1006.41 1006.26 1005.84 1005.04 1005.03 1006.58 1006.80 1007.81 1008.80 1009.57 1009.74 1010.27 1009.63 1008.83 1008.40 1008.74 1009.46 1010.23 1011.29 1012.55 1013.65 1014.95 1016.34 1017.77 1019.11 1020.15 1021.26 1022.17 1022.97 1023.56 1024.12 1024.79 1025.33 1026.01 1026.68 1027.20 1027.39 1028.00 1028.19 1028.26 1028.73 1029.29 1029.68
1006.00 1006.37 1006.11 1005.19 1005.06 1005.04 1005.29 1005.64 1006.47 1007.54 1009.26 1009.54 1009.26 1008.92 1008.44 1008.77 1008.82 1009.18 1010.08 1011.21 1012.60 1013.79 1014.95 1016.20 1017.46 1018.68 1019.79 1020.82 1021.78 1022.58 1023.24 1023.86 1024.62 1025.29 1025.87 1026.48 1026.97 1027.46 1027.80 1028.02 1028.37 1028.98 1029.24 1029.49
1005.93 1006.07 1006.11 1005.89 1005.87 1005.49 1004.82 1005.51 1005.73 1006.82 1007.95 1008.51 1008.83 1008.45 1008.48 1008.80 1009.05 1009.38 1010.17 1011.22 1012.48 1013.74 1014.97 1016.07 1017.30 1018.12 1019.12 1020.21 1021.27 1022.07 1022.84 1023.53 1024.31 1024.97 1025.63 1026.28 1026.78 1027.22 1027.61 1027.98 1028.54 1029.01 1029.09 1029.13
1005.68 1005.78 1005.40 1004.79 1004.18 1004.80 1005.07 1005.20 1005.51 1005.91 1006.73 1007.21 1007.42 1007.76 1008.15 1008.35 1008.84 1009.62 1010.31 1011.33 1012.39 1013.47 1014.53 1015.64 1016.84 1017.67 1018.67 1019.67 1020.73 1021.59 1022.40 1023.21 1023.97 1024.68 1025.29 1025.95 1026.57 1027.08 1027.50 1028.01 1028.46 1028.68 1028.75 1028.96
1006.54 1006.02 1005.82 1005.38 1004.78 1004.41 1004.28 1004.42 1004.84 1004.87 1005.37 1005.94 1006.64 1006.88 1006.85 1007.34 1007.97 1009.03 1010.12 1011.32 1012.21 1013.12 1014.03 1014.89 1015.79 1016.89 1018.02 1019.07 1020.16 1021.06 1021.94 1022.83 1023.60 1024.29 1024.92 1025.58 1026.28 1026.86 1027.43 1027.93 1028.20 1028.42 1028.71 1029.00
1007.73 1006.84 1006.14 1005.73 1005.15 1004.72 1004.47 1004.27 1004.04 1004.14 1004.78 1005.17 1005.55 1006.32 1006.43 1007.38 1008.12 1009.15 1009.88 1010.74 1011.54 1012.30 1013.17 1014.04 1014.95 1016.10 1017.25 1018.30 1019.19 1020.25 1021.29 1022.21 1023.11 1023.81 1024.42 1025.19 1025.97 1026.60 1027.16 1027.62 1028.04 1028.43 1028.74 1028.95
1008.99 1008.00 1007.01 1006.09 1005.38 1005.29 1004.84 1003.50 1004.04 1004.40 1004.63 1004.52 1005.05 1005.53 1006.11 1007.21 1007.70 1008.14 1009.02 1009.80 1010.29 1011.02 1012.04 1013.10 1013.97 1015.02 1016.13 1017.17 1018.35 1019.31 1020.39 1021.62 1022.54 1023.25 1023.97 1024.71 1025.45 1026.18 1026.84 1027.39 1027.85 1028.18 1028.52 1028.90
1010.07 1008.97 1007.99 1006.73 1005.84 1005.41 1003.50 1003.24 1003.10 1003.65 1003.95 1004.15 1004.52 1004.89 1005.19 1005.47 1005.86 1006.90 1007.79 1008.15 1009.36 1010.37 1011.24 1012.18 1013.19 1014.14 1015.05 1016.30 1017.59 1018.77 1019.89 1020.88 1021.82 1022.63 1023.33 1024.12 1024.92 1025.68 1026.44 1026.99 1027.47 1027.97 1028.37 1028.72
1009.90 1009.48 1008.23 1007.17 1006.00 1005.03 1004.15 1003.63 1003.47 1003.47 1003.88 1004.01 1004.04 1004.49 1005.12 1005.67 1006.45 1007.02 1007.47 1007.84 1007.91 1008.67 1009.67 1010.49 1011.51 1012.65 1014.35 1015.74 1017.01 1018.20 1019.36 1020.37 1021.22 1021.88 1022.60 1023.43 1024.30 1025.09 1025.92 1026.66 1027.29 1027.74 1028.17 1028.52
1009.56 1009.14 1008.65 1007.64 1006.40 1004.76 1003.72 1003.27 1003.25 1003.29 1003.07 1003.20 1003.66 1004.12 1004.74 1005.54 1005.81 1005.47 1005.64 1006.98 1007.87 1008.60 1009.42 1010.19 1011.23 1012.66 1014.09 1015.06 1016.23 1017.37 1018.45 1019.52 1020.26 1020.97 1021.79 1022.77 1023.65 1024.47 1025.28 1026.04 1026.85 1027.42 1027.78 1028.06
1010.19 1009.61 1008.70 1007.84 1006.75 1005.46 1004.75 1004.09 1003.77 1004.12 1003.39 1002.93 1003.28 1003.63 1004.43 1004.52 1003.90 1003.83 1004.96 1006.17 1006.63 1007.39 1008.58 1009.85 1010.83 1011.51 1012.55 1014.30 1015.55 1016.52 1017.61 1018.41 1019.15 1020.32 1021.25 1022.18 1023.06 1023.90 1024.71 1025.62 1026.44 1026.99 1027.34 1027.72
1009.66 1010.11 1008.80 1008.04 1007.44 1006.70 1005.84 1004.85 1005.06 1004.54 1003.46 1003.17 1003.25 1003.57 1003.77 1003.68 1004.02 1004.54 1004.97 1005.60 1006.46 1007.13 1008.30 1009.36 1010.39 1011.10 1012.23 1013.34 1014.39 1015.48 1016.53 1017.50 1018.59 1019.75 1020.75 1021.66 1022.51 1023.43 1024.31 1025.15 1025.98 1026.52 1026.90 1027.28
1010.19 1009.27 1009.16 1008.88 1008.26 1007.62 1007.02 1006.66 1006.10 1005.65 1004.49 1003.82 1003.51 1003.58 1003.80 1004.01 1004.27 1004.66 1004.79 1005.51 1006.03 1006.56 1007.46 1008.58 1009.45 1010.56 1011.64 1012.55 1013.43 1014.31 1015.31 1016.69 1017.92 1019.18 1020.08 1020.99 1021.94 1022.86 1023.75 1024.62 1025.43 1026.06 1026.50 1026.82
1011.00 1010.29 1009.51 1009.61 1009.03 1008.36 1007.56 1007.16 1006.70 1006.20 1005.57 1004.80 1004.11 1003.75 1004.00 1004.07 1004.27 1004.54 1004.86 1005.25 1005.71 1006.23 1006.81 1007.95 1009.21 1010.04 1010.91 1011.83 1012.54 1013.28 1014.41 1015.82 1017.13 1018.32 1019.42 1020.41 1021.37 1022.36 1023.32 1024.14 1024.91 1025.49 1026.02 1026.46
1012.80 1011.75 1010.47 1010.21 1009.76 1008.85 1008.21 1007.71 1007.25 1006.62 1006.12 1005.36 1004.63 1004.18 1004.15 1004.32 1004.42 1004.51 1004.88 1005.16 1005.40 1005.92 1006.59 1007.22 1007.98 1008.91 1009.69 1010.82 1011.68 1012.54 1013.74 1015.10 1016.24 1017.48 1018.67 1019.67 1020.68 1021.79 1022.70 1023.64 1024.47 1024.98 1025.44 1025.69
1013.00 1012.59 1011.79 1011.27 1011.25 1010.66 1009.22 1008.71 1008.26 1007.49 1006.92 1006.11 1005.52 1005.02 1004.95 1004.84 1004.89 1004.91 1004.93 1005.18 1005.40 1005.71 1006.24 1006.85 1007.46 1008.46 1009.39 1010.34 1011.26 1012.12 1013.25 1014.18 1015.31 1016.65 1017.94 1018.90 1019.91 1021.04 1022.05 1023.14 1024.55 1025.51 1025.46 1025.90
Thickness
5614 5619 5621 5631 5630 5630 5626 5623 5624 5616 5623 5625 5626 5626 5620 5617 5617 5614 5615 5613 5612 5610 5607 5605 5611 5605 5606 5605 5603 5602 5608 5603 5603 5603 5609 5608 5611 5610 5612 5611 5612 5613 5614 5613
5603 5611 5623 5618 5617 5618 5619 5617 5612 5604 5611 5617 5608 5613 5610 5611 5614 5614 5611 5609 5609 5604 5604 5602 5600 5602 5601 5599 5597 5596 5598 5593 5594 5600 5600 5601 5601 5599 5598 5601 5601 5602 5603 5601
5603 5611 5610 5611 5608 5609 5612 5618 5605 5612 5602 5599 5604 5599 5599 5606 5606 5606 5607 5610 5609 5609 5604 5599 5598 5599 5599 5598 5595 5592 5591 5591 5590 5595 5592 5589 5590 5588 5588 5589 5590 5592 5591 5590
5596 5601 5601 5607 5608 5614 5605 5620 5615 5605 5605 5600 5604 5604 5597 5609 5604 5601 5605 5607 5609 5606 5600 5595 5595 5593 5595 5594 5593 5590 5587 5585 5585 5586 5587 5589 5590 5586 5578 5579 5577 5579 5580 5578
5598 5595 5597 5596 5613 5612 5616 5613 5609 5607 5606 5594 5586 5594 5611 5601 5595 5607 5614 5611 5607 5602 5598 5594 5591 5592 5591 5588 5588 5585 5581 5580 5577 5575 5583 5585 5579 5576 5571 5569 5568 5567 5567 5567
5588 5594 5599 5605 5606 5612 5607 5600 5591 5587 5585 5578 5597 5600 5603 5597 5617 5622 5620 5611 5603 5598 5595 5591 5586 5586 5585 5581 5580 5578 5578 5575 5571 5570 5573 5574 5572 5569 5564 5561 5559 5557 5556 5557
5575 5584 5595 5601 5597 5596 5604 5600 5573 5568 5565 5581 5582 5584 5614 5619 5621 5630 5628 5619 5605 5597 5590 5587 5585 5582 5578 5575 5575 5573 5573 5571 5567 5564 5564 5564 5563 5562 5558 5555 5553 5549 5549 5549
5574 5568 5591 5602 5603 5599 5596 5609 5593 5578 5573 5583 5575 5583 5618 5630 5631 5628 5624 5618 5602 5597 5593 5589 5584 5578 5573 5570 5568 5568 5566 5564 5564 5558 5557 5555 5553 5553 5552 5549 5547 5544 5542 5540
5564 5574 5591 5598 5605 5607 5590 5591 5608 5580 5566 5578 5587 5595 5616 5621 5624 5619 5617 5612 5606 5602 5598 5592 5584 5577 5571 5566 5563 5562 5561 5560 5558 5553 5549 5548 5546 5546 5545 5545 5540 5538 5535 5535
5568 5569 5588 5594 5600 5599 5606 5605 5588 5581 5566 5571 5574 5588 5613 5615 5621 5615 5613 5615 5608 5601 5595 5589 5582 5573 5568 5564 5559 5555 5554 5554 5552 5548 5545 5542 5538 5539 5537 5537 5536 5534 5530 5527
5562 5564 5570 5583 5595 5599 5587 5589 5581 5586 5584 5588 5578 5595 5617 5629 5626 5621 5620 5617 5609 5604 5597 5587 5578 5570 5565 5560 5555 5551 5549 5547 5544 5541 5538 5534 5533 5534 5530 5530 5532 5528 5524 5519
5559 5551 5557 5580 5593 5601 5604 5601 5604 5584 5566 5575 5589 5599 5613 5615 5619 5621 5619 5613 5604 5597 5591 5584 5576 5568 5563 5558 5553 5548 5545 5543 5540 5536 5533 5531 5530 5528 5528 5528 5526 5520 5517 5516
5547 5541 5547 5559 5571 5579 5592 5586 5601 5586 5581 5570 5579 5595 5606 5609 5611 5613 5612 5607 5599 5593 5586 5581 5573 5570 5564 5559 5553 5548 5543 5541 5537 5534 5532 5529 5528 5527 5525 5523 5518 5514 5514 5515
5545 5539 5557 5566 5584 5577 5576 5579 5588 5597 5584 5585 5590 5605 5603 5609 5612 5605 5605 5601 5596 5590 5585 5580 5573 5570 5564 5559 5553 5547 5543 5539 5536 5533 5531 5529 5526 5523 5521 5517 5513 5513 5513 5511
5529 5541 5545 5561 5571 5578 5583 5586 5585 5595 5597 5591 5593 5600 5615 5617 5617 5609 5602 5597 5592 5589 5585 5581 5577 5572 5565 5558 5553 5548 5543 5539 5535 5533 5530 5527 5523 5519 5516 5513 5512 5511 5509 5506
5510 5531 5540 5536 5560 5570 5572 5577 5589 5599 5593 5595 5601 5595 5613 5605 5602 5598 5598 5596 5593 5592 5587 5584 5579 5572 5565 5559 5555 5550 5544 5539 5535 5532 5529 5525 5521 5517 5514 5512 5509 5507 5504 5503
5495 5508 5521 5540 5550 5551 5546 5577 5574 5577 5581 5596 5590 5603 5600 5596 5600 5604 5600 5598 5598 5597 5592 5587 5582 5576 5569 5564 5558 5552 5547 5540 5535 5532 5528 5525 5521 5517 5513 5510 5507 5505 5503 5500
5478 5496 5502 5521 5538 5529 5571 5578 5586 5582 5585 5592 5595 5601 5605 5612 5615 5610 5604 5606 5601 5598 5595 5589 5583 5578 5574 5567 5559 5553 5547 5541 5536 5533 5529 5526 5522 5518 5513 5509 5507 5503 5500 5498
5476 5485 5497 5514 5528 5544 5552 5562 5568 5572 5577 5585 5598 5598 5599 5596 5596 5597 5599 5605 5610 5607 5601 5597 5593 5586 5575 5566 5559 5553 5546 5541 5537 5534 5531 5527 5523 5518 5513 5508 5503 5501 5498 5496
5471 5480 5492 5496 5523 5534 5557 5564 5570 5578 5571 5588 5594 5592 5591 5592 5593 5608 5612 5605 5600 5599 5597 5595 5590 5581 5572 5566 5560 5555 5549 5543 5540 5536 5532 5528 5524 5519 5514 5509 5503 5500 5498 5496
5450 5463 5481 5485 5512 5531 5537 5549 5562 5550 5572 5587 5592 5594 5587 5595 5612 5619 5609 5603 5606 5604 5596 5590 5588 5586 5579 5567 5559 5556 5550 5547 5542 5535 5532 5528 5523 5518 5514 5507 5502 5499 5497 5494
5455 5450 5474 5487 5503 5518 5518 5540 5544 5556 5567 5578 5582 5585 5587 5598 5597 5600 5599 5601 5598 5597 5592 5587 5584 5583 5576 5570 5564 5559 5553 5546 5541 5535 5530 5526 5522 5517 5511 5506 5501 5497 5495 5492
5445 5460 5466 5477 5487 5496 5503 5513 5523 5531 5554 5564 5574 5577 5581 5584 5587 5590 5595 5592 5593 5594 5592 5585 5584 5578 5574 5570 5566 5563 5556 5547 5541 5534 5530 5525 5520 5515 5510 5504 5500 5495 5493 5491
5419 5433 5457 5462 5473 5484 5496 5507 5515 5524 5535 5547 5561 5569 5571 5576 5578 5582 5585 5587 5588 5589 5590 5584 5578 5576 5573 5570 5567 5564 5556 5549 5541 5534 5528 5523 5518 5512 5507 5503 5498 5494 5490 5487
5396 5407 5436 5446 5456 5471 5490 5495 5502 5514 5524 5535 5549 5558 5561 5565 5569 5575 5577 5579 5584 5584 5584 5583 5581 5578 5576 5569 5566 5562 5556 5548 5543 5535 5528 5522 5517 5510 5505 5500 5496 5493 5490 5487
5390 5397 5411 5435 5427 5440 5465 5475 5485 5498 5505 5518 5530 5544 5548 5554 5558 5563 5568 5570 5575 5577 5577 5577 5577 5573 5570 5564 5562 5558 5552 5548 5542 5535 5526 5521 5514 5508 5503 5497 5489 5483 5483 5480